Location: Batang Balui
(2.7000°N, 113.7833°E)
Time: 10:45:15
(UTC+00:00)

Hubble Space Telescope - Pass Details

Date: 04 December 2022
Orbit: 529 x 532 km, 28.5° (Epoch: 01 February)

Event Time Altitude Azimuth Distance (km) Brightness Sun altitude
Exits shadow 21:44:05 - 309° (NW) 1,808 2.8 -8.2°
Reaches altitude 10° 21:44:24 10° 313° (NW) 1,759 2.8 -8.2°
Maximum altitude 21:45:54 12° 335° (NNW) 1,649 2.8 -7.8°
Drops below altitude 10° 21:47:24 10° 356° (N) 1,756 3.1 -7.5°
Sets 21:51:02 0° 30° (NNE) 2,642 4.4 -6.6°
